EST,Max TemperatureF,Mean TemperatureF,Min TemperatureF,Max Dew PointF,MeanDew PointF,Min DewpointF,Max Humidity, Mean Humidity, Min Humidity, Max Sea Level PressureIn, Mean Sea Level PressureIn, Min Sea Level PressureIn, Max VisibilityMiles, Mean VisibilityMiles, Min VisibilityMiles, Max Wind SpeedMPH, Mean Wind SpeedMPH, Max Gust SpeedMPH,PrecipitationIn, CloudCover, Events, WindDirDegrees
2014-1-1,50,40,29,27,22,19,78,55,31,30.40,30.29,30.14,10,10,10,13,4,16,0.00,5,,198
2014-1-2,45,40,34,43,35,27,100,82,64,30.11,29.80,29.62,10,7,1,25,6,35,0.42,8,Rain,239
2014-1-3,36,28,19,22,5,-1,70,48,26,30.46,30.22,29.76,10,10,10,36,11,46,T,1,,340
2014-1-4,36,27,17,27,13,8,80,58,35,30.49,30.40,30.27,10,10,10,10,4,14,T,5,Rain,195
2014-1-5,41,36,31,40,34,28,100,89,78,30.25,30.08,29.77,8,2,0,12,4,14,0.51,8,Fog-Rain,29
2014-1-6,43,27,10,41,24,-10,100,67,33,30.21,29.82,29.65,10,8,2,28,16,36,0.21,6,Rain,276
2014-1-7,23,14,5,2,-6,-11,60,44,27,30.49,30.40,30.23,10,10,10,18,8,23,0.00,1,,276
2014-1-8,42,28,14,10,7,3,59,42,24,30.58,30.51,30.46,10,10,10,10,4,15,0.00,2,,207
2014-1-9,51,37,23,20,11,0,74,44,13,30.56,30.50,30.45,10,10,10,9,2,15,0.00,5,,191
2014-1-10,43,39,35,38,33,19,100,70,39,30.43,30.28,30.10,10,4,1,13,5,15,0.82,8,Rain,25
2014-1-11,59,49,38,58,46,37,100,96,92,30.06,29.78,29.60,10,5,0,30,9,36,1.40,8,Fog-Rain-Thunderstorm,251
2014-1-12,56,46,35,38,30,27,75,55,35,30.15,30.00,29.72,10,10,10,22,9,28,0.00,0,,255
2014-1-13,58,46,33,41,33,29,82,63,43,30.14,30.05,29.94,10,10,9,22,9,29,0.05,6,Rain,205
2014-1-14,56,45,34,45,42,32,100,80,59,29.96,29.84,29.78,10,7,0,16,6,20,0.28,6,Rain,231
2014-1-15,55,42,28,41,32,28,100,75,50,29.95,29.91,29.82,10,7,0,17,5,22,0.01,5,Fog-Rain-Snow,279
2014-1-16,42,36,30,29,19,15,70,51,31,30.03,29.96,29.91,10,10,10,14,5,18,0.00,1,,260
2014-1-17,51,39,26,26,21,18,70,52,34,29.98,29.91,29.83,10,10,10,21,9,28,0.00,3,,222
2014-1-18,37,32,26,23,11,3,66,48,29,30.06,29.97,29.86,10,10,10,25,11,32,0.00,2,,273
2014-1-19,51,39,27,23,18,13,61,47,32,29.95,29.93,29.90,10,10,10,24,9,30,0.00,2,,243
2014-1-20,62,45,28,25,22,19,75,48,20,29.88,29.84,29.77,10,10,10,18,7,23,0.00,1,,235
2014-1-21,47,36,25,34,27,19,89,69,49,29.83,29.69,29.55,10,7,1,15,7,22,0.17,6,Rain-Snow,10
2014-1-22,29,23,17,17,6,-1,81,55,29,30.08,29.99,29.85,10,10,10,16,5,20,0.00,3,,327
2014-1-23,36,27,17,11,6,-3,62,46,29,30.44,30.24,30.08,10,10,10,22,8,28,0.00,4,,317
2014-1-24,25,16,7,-5,-6,-10,55,39,22,30.59,30.45,30.22,10,10,10,15,7,22,0.00,1,,277
2014-1-25,39,29,18,14,3,-5,45,34,23,30.18,29.84,29.64,10,10,10,28,14,35,0.00,5,,229
2014-1-26,52,35,18,26,14,7,80,49,18,29.94,29.86,29.81,10,10,10,22,10,28,0.00,3,,220
2014-1-27,61,46,30,33,26,2,57,46,35,30.09,29.85,29.78,10,10,10,20,11,24,0.00,5,,284
2014-1-28,30,24,17,14,6,-6,80,54,27,30.33,30.23,30.12,10,6,1,17,9,23,0.11,8,Snow,24
2014-1-29,26,21,15,12,4,-4,80,55,29,30.35,30.28,30.17,10,10,9,10,3,14,T,6,Snow,353
2014-1-30,35,21,7,8,2,-1,73,48,22,30.42,30.33,30.24,10,10,10,8,2,,0.00,1,,102
2014-1-31,53,34,15,19,12,6,67,43,19,30.20,30.17,30.12,10,10,10,9,4,12,0.00,3,,240